,,,PA_Meas_PMT16A,,PR_Meas_QMR101_102,,RH_Meas_QMH101,,SR_Meas_QMS101,,TA_Meas_QMH101,,GenWind,,GenWind,
date,time,status,PA,status,PR,status,RH,status,SR,status,TA,status,DirAvg,status,SpdAvg,
2010-07-29, 00:00:04,VALID,1001.93,VALID,0,VALID,93.8291,VALID,0,VALID,23.2134,VALID,186,VALID,1.74336,
2010-07-29, 00:01:04,VALID,1001.94,VALID,0,VALID,93.8214,VALID,0,VALID,23.2134,VALID,177,VALID,2.06836,
2010-07-29, 00:02:04,VALID,1001.94,VALID,0,VALID,93.8138,VALID,0,VALID,23.1921,VALID,175,VALID,1.7043,
2010-07-29, 00:03:04,VALID,1001.94,VALID,0,VALID,93.852,VALID,0,VALID,23.2134,VALID,168,VALID,1.41289,
2010-07-29, 00:04:04,VALID,1001.89,VALID,0,VALID,93.8291,VALID,0,VALID,23.2329,VALID,168,VALID,1.13047,
2010-07-29, 00:05:04,VALID,1001.9,VALID,0,VALID,93.8214,VALID,0,VALID,23.2134,VALID,168,VALID,1.12812,
2010-07-29, 00:06:04,VALID,1001.88,VALID,0,VALID,93.852,VALID,0,VALID,23.2117,VALID,168,VALID,1.05586,
2010-07-29, 00:07:04,VALID,1001.85,VALID,0,VALID,93.8443,VALID,0,VALID,23.2134,VALID,173,VALID,1.24375,
2010-07-29, 00:08:04,VALID,1001.89,VALID,0,VALID,93.8291,VALID,0,VALID,23.2329,VALID,163,VALID,1.21406,
2010-07-29, 00:09:04,VALID,1001.89,VALID,0,VALID,93.8291,VALID,0,VALID,23.2134,VALID,161,VALID,1.38789,
2010-07-29, 00:10:04,VALID,1001.89,VALID,0,VALID,93.8138,VALID,0,VALID,23.1726,VALID,159,VALID,1.21992,
2010-07-29, 00:11:04,VALID,1001.91,VALID,0.5,VALID,93.7985,VALID,0,VALID,23.1744,VALID,151,VALID,1.14766,
2010-07-29, 00:12:04,VALID,1001.88,VALID,0,VALID,93.8138,VALID,0,VALID,23.1354,VALID,145,VALID,1.17773,
2010-07-29, 00:13:04,VALID,1001.87,VALID,0,VALID,93.7985,VALID,0,VALID,23.1336,VALID,136,VALID,0.971875,
2010-07-29, 00:14:04,VALID,1001.87,VALID,0,VALID,93.7909,VALID,0,VALID,23.1549,VALID,128,VALID,0.896094,
2010-07-29, 00:15:04,VALID,1001.87,VALID,0,VALID,93.7985,VALID,0,VALID,23.1549,VALID,128,VALID,0.830469,
2010-07-29, 00:16:04,VALID,1001.84,VALID,0,VALID,93.8062,VALID,0,VALID,23.1549,VALID,135,VALID,0.800781,
2010-07-29, 00:17:04,VALID,1001.85,VALID,0,VALID,93.7985,VALID,0,VALID,23.1549,VALID,148,VALID,0.878906,
2010-07-29, 00:18:04,VALID,1001.81,VALID,0,VALID,93.8062,VALID,0,VALID,23.1549,VALID,149,VALID,0.980859,
2010-07-29, 00:19:04,VALID,1001.8,VALID,0,VALID,93.7757,VALID,0,VALID,23.1744,VALID,165,VALID,0.716016,
2010-07-29, 00:20:04,VALID,1001.77,VALID,0,VALID,93.8214,VALID,0,VALID,23.1744,VALID,174,VALID,0,
2010-07-29, 00:21:04,VALID,1001.78,VALID,0,VALID,93.7985,VALID,0,VALID,23.1744,VALID,174,VALID,0,
2010-07-29, 00:22:04,VALID,1001.77,VALID,0,VALID,93.8062,VALID,0,VALID,23.1531,VALID,174,VALID,0,
2010-07-29, 00:23:04,VALID,1001.75,VALID,0,VALID,93.8214,VALID,0,VALID,23.1744,VALID,174,VALID,0,
2010-07-29, 00:24:04,VALID,1001.76,VALID,0,VALID,93.8214,VALID,0,VALID,23.1531,VALID,174,VALID,0,
2010-07-29, 00:25:04,VALID,1001.72,VALID,0,VALID,93.8214,VALID,0,VALID,23.1531,VALID,174,VALID,0,
2010-07-29, 00:26:04,VALID,1001.7,VALID,0,VALID,93.8214,VALID,0,VALID,23.1744,VALID,174,VALID,0,
2010-07-29, 00:27:04,VALID,1001.67,VALID,0,VALID,93.8291,VALID,0,VALID,23.1531,VALID,174,VALID,0,
2010-07-29, 00:28:04,VALID,1001.69,VALID,0,VALID,93.8214,VALID,0,VALID,23.1549,VALID,174,VALID,0,
2010-07-29, 00:29:04,VALID,1001.65,VALID,0,VALID,93.8443,VALID,0,VALID,23.1531,VALID,174,VALID,0,
2010-07-29, 00:30:04,VALID,1001.69,VALID,0,VALID,93.8443,VALID,0,VALID,23.1336,VALID,174,VALID,0,
2010-07-29, 00:31:04,VALID,1001.63,VALID,0,VALID,93.852,VALID,0,VALID,23.1531,VALID,174,VALID,0,
2010-07-29, 00:32:04,VALID,1001.6,VALID,0.5,VALID,93.8291,VALID,0,VALID,23.1531,VALID,174,VALID,0,
2010-07-29, 00:33:04,VALID,1001.61,VALID,0,VALID,93.8596,VALID,0.112286,VALID,23.1921,VALID,174,VALID,0,
2010-07-29, 00:34:04,VALID,1001.58,VALID,0,VALID,93.8672,VALID,0,VALID,23.2134,VALID,174,VALID,0,
2010-07-29, 00:35:04,VALID,1001.57,VALID,0,VALID,93.8596,VALID,0,VALID,23.2134,VALID,174,VALID,0,
2010-07-29, 00:36:04,VALID,1001.55,VALID,0,VALID,93.8596,VALID,0,VALID,23.2134,VALID,174,VALID,0,
2010-07-29, 00:37:04,VALID,1001.54,VALID,0,VALID,93.8825,VALID,0,VALID,23.2329,VALID,174,VALID,0,
2010-07-29, 00:38:04,VALID,1001.56,VALID,0,VALID,93.8825,VALID,0,VALID,23.2329,VALID,174,VALID,0,
2010-07-29, 00:39:04,VALID,1001.55,VALID,0,VALID,93.8748,VALID,0,VALID,23.2329,VALID,174,VALID,0,
2010-07-29, 00:40:04,VALID,1001.54,VALID,0,VALID,93.8901,VALID,0,VALID,23.2117,VALID,174,VALID,0,
2010-07-29, 00:41:04,VALID,1001.5,VALID,0,VALID,93.8672,VALID,0,VALID,23.2329,VALID,174,VALID,0,
2010-07-29, 00:42:04,VALID,1001.53,VALID,0,VALID,93.8825,VALID,0,VALID,23.2329,VALID,184,VALID,0,
2010-07-29, 00:43:04,VALID,1001.52,VALID,0,VALID,93.8977,VALID,0,VALID,23.2329,VALID,226,VALID,0,
2010-07-29, 00:44:04,VALID,1001.49,VALID,0,VALID,93.8901,VALID,0,VALID,23.2117,VALID,289,VALID,0,
2010-07-29, 00:45:04,VALID,1001.48,VALID,0,VALID,93.8901,VALID,0,VALID,23.2117,VALID,326,VALID,0,
2010-07-29, 00:46:04,VALID,1001.48,VALID,0,VALID,93.8672,VALID,0,VALID,23.2329,VALID,336,VALID,0.0410156,
2010-07-29, 00:47:04,VALID,1001.46,VALID,0,VALID,93.8977,VALID,0,VALID,23.1921,VALID,348,VALID,0.804297,
2010-07-29, 00:48:04,VALID,1001.46,VALID,0,VALID,93.8977,VALID,0,VALID,23.1921,VALID,357,VALID,0.938672,
2010-07-29, 00:49:04,VALID,1001.48,VALID,0,VALID,93.8825,VALID,0,VALID,23.2134,VALID,357,VALID,0.998438,
2010-07-29, 00:50:04,VALID,1001.47,VALID,0,VALID,93.8825,VALID,0,VALID,23.1939,VALID,357,VALID,0.949219,
2010-07-29, 00:51:04,VALID,1001.45,VALID,0,VALID,93.8977,VALID,0,VALID,23.1939,VALID,5,VALID,1.07266,
2010-07-29, 00:52:04,VALID,1001.44,VALID,0,VALID,93.8901,VALID,0,VALID,23.1939,VALID,17,VALID,1.14961,
2010-07-29, 00:53:04,VALID,1001.37,VALID,0,VALID,93.8825,VALID,0,VALID,23.1939,VALID,14,VALID,0.760156,
2010-07-29, 00:54:04,VALID,1001.35,VALID,0,VALID,93.8901,VALID,0,VALID,23.1939,VALID,13,VALID,0.630078,
2010-07-29, 00:55:04,VALID,1001.34,VALID,0,VALID,93.9054,VALID,0,VALID,23.1939,VALID,358,VALID,0.271875,
2010-07-29, 00:56:04,VALID,1001.33,VALID,0,VALID,93.8977,VALID,0,VALID,23.1921,VALID,358,VALID,0.00195313,
2010-07-29, 00:57:04,VALID,1001.26,VALID,0,VALID,93.9054,VALID,0,VALID,23.1939,VALID,358,VALID,0.141797,
2010-07-29, 00:58:04,VALID,1001.26,VALID,0,VALID,93.8977,VALID,0,VALID,23.1726,VALID,358,VALID,0,
2010-07-29, 00:59:04,VALID,1001.25,VALID,0,VALID,93.9054,VALID,0,VALID,23.1939,VALID,358,VALID,0,
2010-07-29, 01:00:04,VALID,1001.22,VALID,0,VALID,93.8977,VALID,0,VALID,23.1939,VALID,358,VALID,0,
2010-07-29, 01:01:04,VALID,1001.19,VALID,0,VALID,93.9054,VALID,0,VALID,23.1744,VALID,358,VALID,0,
2010-07-29, 01:02:04,VALID,1001.15,VALID,0,VALID,93.913,VALID,0,VALID,23.1744,VALID,358,VALID,0,
2010-07-29, 01:03:04,VALID,1001.13,VALID,0,VALID,93.913,VALID,0,VALID,23.1744,VALID,358,VALID,0,
2010-07-29, 01:04:04,VALID,1001.13,VALID,0,VALID,93.8977,VALID,0,VALID,23.1939,VALID,358,VALID,0,
2010-07-29, 01:05:04,VALID,1001.13,VALID,0,VALID,93.9054,VALID,0,VALID,23.1744,VALID,358,VALID,0,
2010-07-29, 01:06:04,VALID,1001.1,VALID,0,VALID,93.9283,VALID,0,VALID,23.1744,VALID,358,VALID,0,
2010-07-29, 01:07:04,VALID,1001.08,VALID,0,VALID,93.9283,VALID,0,VALID,23.1531,VALID,358,VALID,0,
2010-07-29, 01:08:04,VALID,1001.07,VALID,0,VALID,93.9435,VALID,0,VALID,23.1744,VALID,358,VALID,0,
2010-07-29, 01:09:04,VALID,1001.07,VALID,0,VALID,93.9359,VALID,0,VALID,23.1744,VALID,358,VALID,0,
2010-07-29, 01:10:04,VALID,1001.02,VALID,0,VALID,93.9283,VALID,0,VALID,23.1744,VALID,358,VALID,0,
2010-07-29, 01:11:04,VALID,1001.02,VALID,0,VALID,93.9206,VALID,0,VALID,23.1531,VALID,358,VALID,0,
2010-07-29, 01:12:04,VALID,1000.95,VALID,0,VALID,93.9435,VALID,0,VALID,23.1744,VALID,358,VALID,0,
2010-07-29, 01:13:04,VALID,1000.96,VALID,0,VALID,93.9435,VALID,0,VALID,23.1531,VALID,358,VALID,0,
2010-07-29, 01:14:04,VALID,1000.91,VALID,0,VALID,93.9359,VALID,0,VALID,23.1744,VALID,358,VALID,0,
2010-07-29, 01:15:04,VALID,1000.94,VALID,0,VALID,93.9283,VALID,0,VALID,23.1744,VALID,358,VALID,0,
2010-07-29, 01:16:04,VALID,1000.9,VALID,0,VALID,93.9359,VALID,0,VALID,23.1531,VALID,358,VALID,0,
2010-07-29, 01:17:04,VALID,1000.9,VALID,0,VALID,93.9511,VALID,0,VALID,23.1744,VALID,358,VALID,0,
2010-07-29, 01:18:04,VALID,1000.88,VALID,0,VALID,93.9435,VALID,0,VALID,23.1939,VALID,358,VALID,0,
2010-07-29, 01:19:04,VALID,1000.88,VALID,0,VALID,93.9359,VALID,0,VALID,23.1726,VALID,358,VALID,0,
2010-07-29, 01:20:04,VALID,1000.88,VALID,0,VALID,93.9511,VALID,0,VALID,23.1939,VALID,358,VALID,0,
2010-07-29, 01:21:04,VALID,1000.85,VALID,0,VALID,93.9664,VALID,0,VALID,23.1744,VALID,11,VALID,0,
2010-07-29, 01:22:04,VALID,1000.85,VALID,0,VALID,93.9588,VALID,0,VALID,23.1744,VALID,16,VALID,0,
2010-07-29, 01:23:04,VALID,1000.84,VALID,0,VALID,93.9511,VALID,0,VALID,23.1744,VALID,26,VALID,0.0433594,
2010-07-29, 01:24:04,VALID,1000.83,VALID,0,VALID,93.974,VALID,0,VALID,23.1939,VALID,27,VALID,1.25352,
2010-07-29, 01:25:04,VALID,1000.82,VALID,0,VALID,93.9588,VALID,0,VALID,23.2134,VALID,28,VALID,1.12734,
2010-07-29, 01:26:04,VALID,1000.81,VALID,0.5,VALID,93.974,VALID,0,VALID,23.2134,VALID,23,VALID,1.10977,
2010-07-29, 01:27:04,VALID,1000.8,VALID,0,VALID,93.9664,VALID,0,VALID,23.2134,VALID,22,VALID,0.977344,
2010-07-29, 01:28:04,VALID,1000.78,VALID,0,VALID,93.9817,VALID,0,VALID,23.2134,VALID,21,VALID,0.807031,
2010-07-29, 01:29:04,VALID,1000.78,VALID,0,VALID,93.974,VALID,0,VALID,23.2134,VALID,21,VALID,0.612891,
2010-07-29, 01:30:04,VALID,1000.79,VALID,0,VALID,93.974,VALID,0,VALID,23.1726,VALID,26,VALID,1.05664,
2010-07-29, 01:31:04,VALID,1000.77,VALID,0,VALID,93.9664,VALID,0,VALID,23.1744,VALID,34,VALID,1.07266,
2010-07-29, 01:32:04,VALID,1000.75,VALID,0,VALID,93.9664,VALID,0,VALID,23.1549,VALID,41,VALID,1.30586,
2010-07-29, 01:33:04,VALID,1000.78,VALID,0,VALID,93.9435,VALID,0,VALID,23.1354,VALID,42,VALID,0.966797,
2010-07-29, 01:34:04,VALID,1000.75,VALID,0,VALID,93.9435,VALID,0,VALID,23.1159,VALID,42,VALID,0.955859,
2010-07-29, 01:35:04,VALID,1000.76,VALID,0,VALID,93.8825,VALID,0,VALID,22.9988,VALID,42,VALID,1.23516,
2010-07-29, 01:36:04,VALID,1000.75,VALID,0,VALID,93.8825,VALID,0,VALID,22.9793,VALID,41,VALID,1.16875,
2010-07-29, 01:37:04,VALID,1000.74,VALID,0,VALID,93.8748,VALID,0,VALID,22.9598,VALID,31,VALID,1.07383,
2010-07-29, 01:38:04,VALID,1000.74,VALID,0,VALID,93.8748,VALID,0,VALID,22.9793,VALID,31,VALID,1.28242,
2010-07-29, 01:39:04,VALID,1000.7,VALID,0,VALID,93.852,VALID,0,VALID,22.9403,VALID,29,VALID,1.30391,
2010-07-29, 01:40:04,VALID,1000.69,VALID,0,VALID,93.8367,VALID,0,VALID,22.9208,VALID,30,VALID,0.808594,
2010-07-29, 01:41:04,VALID,1000.73,VALID,0,VALID,93.8291,VALID,0,VALID,22.8995,VALID,29,VALID,0.816406,
2010-07-29, 01:42:04,VALID,1000.73,VALID,0,VALID,93.8214,VALID,0,VALID,22.8995,VALID,27,VALID,1.15469,
2010-07-29, 01:43:04,VALID,1000.71,VALID,0,VALID,93.8138,VALID,0.112286,VALID,22.8605,VALID,27,VALID,1.05234,
2010-07-29, 01:44:04,VALID,1000.71,VALID,0,VALID,93.7985,VALID,0,VALID,22.8605,VALID,27,VALID,0.897266,
2010-07-29, 01:45:04,VALID,1000.72,VALID,0,VALID,93.7833,VALID,0,VALID,22.8605,VALID,27,VALID,0.7375,
2010-07-29, 01:46:04,VALID,1000.7,VALID,0,VALID,93.7833,VALID,0,VALID,22.8605,VALID,27,VALID,0.639844,
2010-07-29, 01:47:04,VALID,1000.71,VALID,0,VALID,93.7757,VALID,0,VALID,22.8818,VALID,27,VALID,0.294531,
2010-07-29, 01:48:04,VALID,1000.7,VALID,0,VALID,93.7757,VALID,0,VALID,22.88,VALID,27,VALID,0.111719,
2010-07-29, 01:49:04,VALID,1000.69,VALID,0,VALID,93.7757,VALID,0,VALID,22.8818,VALID,27,VALID,0.418359,
2010-07-29, 01:50:04,VALID,1000.69,VALID,0,VALID,93.768,VALID,0,VALID,22.8605,VALID,27,VALID,0.721094,
2010-07-29, 01:51:04,VALID,1000.69,VALID,0,VALID,93.7757,VALID,0,VALID,22.8818,VALID,47,VALID,0.926953,
2010-07-29, 01:52:04,VALID,1000.67,VALID,0,VALID,93.7451,VALID,0,VALID,22.8605,VALID,47,VALID,0.673437,
2010-07-29, 01:53:04,VALID,1000.68,VALID,0,VALID,93.7604,VALID,0,VALID,22.88,VALID,47,VALID,0.275,
2010-07-29, 01:54:04,VALID,1000.67,VALID,0,VALID,93.7757,VALID,0,VALID,22.88,VALID,47,VALID,0.599609,
2010-07-29, 01:55:04,VALID,1000.67,VALID,0,VALID,93.7757,VALID,0.112286,VALID,22.88,VALID,46,VALID,0.857422,
2010-07-29, 01:56:04,VALID,1000.68,VALID,0,VALID,93.768,VALID,0,VALID,22.8995,VALID,45,VALID,0.589844,
2010-07-29, 01:57:04,VALID,1000.68,VALID,0,VALID,93.7909,VALID,0,VALID,22.88,VALID,45,VALID,0,
2010-07-29, 01:58:04,VALID,1000.7,VALID,0,VALID,93.8062,VALID,0,VALID,22.8995,VALID,45,VALID,0,
2010-07-29, 01:59:04,VALID,1000.68,VALID,0,VALID,93.7833,VALID,0,VALID,22.9208,VALID,45,VALID,0,
2010-07-29, 02:00:04,VALID,1000.67,VALID,0,VALID,93.7985,VALID,0,VALID,22.9208,VALID,45,VALID,0,
2010-07-29, 02:01:04,VALID,1000.69,VALID,0,VALID,93.8214,VALID,0,VALID,22.9208,VALID,45,VALID,0,
2010-07-29, 02:02:04,VALID,1000.67,VALID,0,VALID,93.8214,VALID,0,VALID,22.8995,VALID,45,VALID,0,
2010-07-29, 02:03:04,VALID,1000.67,VALID,0,VALID,93.8062,VALID,0,VALID,22.8995,VALID,45,VALID,0,
2010-07-29, 02:04:04,VALID,1000.67,VALID,0,VALID,93.8214,VALID,0,VALID,22.9403,VALID,45,VALID,0,
2010-07-29, 02:05:04,VALID,1000.65,VALID,0,VALID,93.8367,VALID,0,VALID,22.919,VALID,45,VALID,0,
2010-07-29, 02:06:04,VALID,1000.68,VALID,0,VALID,93.8443,VALID,0,VALID,22.9403,VALID,45,VALID,0,
2010-07-29, 02:07:04,VALID,1000.7,VALID,0,VALID,93.8596,VALID,0,VALID,22.9403,VALID,45,VALID,0,
2010-07-29, 02:08:04,VALID,1000.7,VALID,0,VALID,93.8672,VALID,0,VALID,22.9208,VALID,45,VALID,0,
2010-07-29, 02:09:04,VALID,1000.72,VALID,0,VALID,93.8443,VALID,0,VALID,22.9208,VALID,45,VALID,0,
2010-07-29, 02:10:04,VALID,1000.69,VALID,0,VALID,93.8748,VALID,0,VALID,22.8995,VALID,45,VALID,0,
2010-07-29, 02:11:04,VALID,1000.68,VALID,0,VALID,93.8748,VALID,0,VALID,22.919,VALID,45,VALID,0,
2010-07-29, 02:12:04,VALID,1000.68,VALID,0,VALID,93.8672,VALID,0,VALID,22.9403,VALID,45,VALID,0,
2010-07-29, 02:13:04,VALID,1000.68,VALID,0,VALID,93.8825,VALID,0,VALID,22.9403,VALID,45,VALID,0,
2010-07-29, 02:14:04,VALID,1000.68,VALID,0,VALID,93.8748,VALID,0,VALID,22.9598,VALID,133,VALID,0,
2010-07-29, 02:15:04,VALID,1000.63,VALID,0,VALID,93.8825,VALID,0,VALID,22.9988,VALID,192,VALID,0,
2010-07-29, 02:16:04,VALID,1000.59,VALID,0,VALID,93.9054,VALID,0,VALID,23.0166,VALID,203,VALID,0,
2010-07-29, 02:17:04,VALID,1000.63,VALID,0,VALID,93.9206,VALID,0,VALID,23.0361,VALID,203,VALID,0,
2010-07-29, 02:18:04,VALID,1000.63,VALID,0,VALID,93.9206,VALID,0,VALID,23.0769,VALID,190,VALID,0,
2010-07-29, 02:19:04,VALID,1000.62,VALID,0,VALID,93.9206,VALID,0,VALID,23.1354,VALID,190,VALID,0,
2010-07-29, 02:20:04,VALID,1000.63,VALID,0,VALID,93.9359,VALID,0,VALID,23.1549,VALID,202,VALID,0,
2010-07-29, 02:21:04,VALID,1000.61,VALID,0,VALID,93.9435,VALID,0,VALID,23.1549,VALID,185,VALID,0,
2010-07-29, 02:22:04,VALID,1000.63,VALID,0,VALID,93.9359,VALID,0.112286,VALID,23.1726,VALID,191,VALID,0,
2010-07-29, 02:23:04,VALID,1000.62,VALID,0,VALID,93.9588,VALID,0,VALID,23.1744,VALID,183,VALID,0,
2010-07-29, 02:24:04,VALID,1000.62,VALID,0,VALID,93.9588,VALID,0,VALID,23.1726,VALID,194,VALID,0,
2010-07-29, 02:25:04,VALID,1000.61,VALID,0,VALID,93.9283,VALID,0,VALID,23.1744,VALID,177,VALID,1.53477,
2010-07-29, 02:26:04,VALID,1000.62,VALID,0,VALID,93.9511,VALID,0,VALID,23.1549,VALID,181,VALID,1.52891,
2010-07-29, 02:27:04,VALID,1000.63,VALID,0,VALID,93.9359,VALID,0,VALID,23.1549,VALID,182,VALID,1.48906,
2010-07-29, 02:28:04,VALID,1000.6,VALID,0,VALID,93.9206,VALID,0,VALID,23.1549,VALID,183,VALID,1.64102,
2010-07-29, 02:29:04,VALID,1000.61,VALID,0,VALID,93.9511,VALID,0,VALID,23.1744,VALID,188,VALID,1.5957,
2010-07-29, 02:30:04,VALID,1000.6,VALID,0,VALID,93.9588,VALID,0,VALID,23.1939,VALID,185,VALID,1.39531,
2010-07-29, 02:31:04,VALID,1000.61,VALID,0,VALID,93.9359,VALID,0,VALID,23.1744,VALID,179,VALID,1.85312,
2010-07-29, 02:32:04,VALID,1000.6,VALID,0,VALID,93.9359,VALID,0,VALID,23.1744,VALID,186,VALID,1.67422,
2010-07-29, 02:33:04,VALID,1000.58,VALID,0,VALID,93.9359,VALID,0,VALID,23.1726,VALID,195,VALID,1.04922,
2010-07-29, 02:34:04,VALID,1000.6,VALID,0,VALID,93.9435,VALID,0,VALID,23.1939,VALID,194,VALID,1.0957,
2010-07-29, 02:35:04,VALID,1000.56,VALID,0,VALID,93.9283,VALID,0,VALID,23.1744,VALID,159,VALID,0.736328,
2010-07-29, 02:36:04,VALID,1000.56,VALID,0,VALID,93.9054,VALID,0,VALID,23.1744,VALID,168,VALID,1.12695,
2010-07-29, 02:37:04,VALID,1000.59,VALID,0,VALID,93.913,VALID,0,VALID,23.1549,VALID,172,VALID,1.38594,
2010-07-29, 02:38:04,VALID,1000.59,VALID,0,VALID,93.8977,VALID,0,VALID,23.1957,VALID,171,VALID,1.50156,
2010-07-29, 02:39:04,VALID,1000.57,VALID,0,VALID,93.8901,VALID,0,VALID,23.1549,VALID,154,VALID,1.64375,
2010-07-29, 02:40:04,VALID,1000.56,VALID,0,VALID,93.8596,VALID,0,VALID,23.1354,VALID,163,VALID,1.30586,
2010-07-29, 02:41:04,VALID,1000.59,VALID,0,VALID,93.8596,VALID,0,VALID,23.1549,VALID,165,VALID,0.821484,
2010-07-29, 02:42:04,VALID,1000.57,VALID,0,VALID,93.8443,VALID,0,VALID,23.1549,VALID,168,VALID,1.38437,
2010-07-29, 02:43:04,VALID,1000.59,VALID,0,VALID,93.8443,VALID,0,VALID,23.1957,VALID,170,VALID,1.01211,
2010-07-29, 02:44:04,VALID,1000.6,VALID,0,VALID,93.8214,VALID,0,VALID,23.1549,VALID,146,VALID,1.33438,
2010-07-29, 02:45:04,VALID,1000.6,VALID,0,VALID,93.7909,VALID,0,VALID,23.1159,VALID,129,VALID,1.32227,
2010-07-29, 02:46:04,VALID,1000.58,VALID,0,VALID,93.7604,VALID,0,VALID,23.1176,VALID,176,VALID,0.755859,
2010-07-29, 02:47:04,VALID,1000.58,VALID,0,VALID,93.7299,VALID,0,VALID,23.0769,VALID,163,VALID,0,
2010-07-29, 02:48:04,VALID,1000.56,VALID,0,VALID,93.6841,VALID,0,VALID,23.0964,VALID,151,VALID,0,
2010-07-29, 02:49:04,VALID,1000.58,VALID,0,VALID,93.6154,VALID,0,VALID,23.0964,VALID,143,VALID,0,
2010-07-29, 02:50:04,VALID,1000.56,VALID,0,VALID,93.6307,VALID,0,VALID,23.1159,VALID,148,VALID,0,
2010-07-29, 02:51:04,VALID,1000.58,VALID,0,VALID,93.5391,VALID,0,VALID,23.0981,VALID,151,VALID,0,
2010-07-29, 02:52:04,VALID,1000.59,VALID,0,VALID,93.4705,VALID,0,VALID,23.0964,VALID,127,VALID,0,
2010-07-29, 02:53:04,VALID,1000.6,VALID,0,VALID,93.3408,VALID,0,VALID,23.0964,VALID,108,VALID,0.552344,
2010-07-29, 02:54:04,VALID,1000.57,VALID,0,VALID,93.1729,VALID,0,VALID,23.1159,VALID,99,VALID,0.717969,
2010-07-29, 02:55:04,VALID,1000.6,VALID,0,VALID,93.0432,VALID,0,VALID,23.1354,VALID,116,VALID,0.788672,
2010-07-29, 02:56:04,VALID,1000.6,VALID,0,VALID,92.944,VALID,0,VALID,23.1549,VALID,128,VALID,0.542969,
2010-07-29, 02:57:04,VALID,1000.61,VALID,0,VALID,92.8983,VALID,0,VALID,23.1354,VALID,106,VALID,0.798828,
2010-07-29, 02:58:04,VALID,1000.62,VALID,0,VALID,92.8067,VALID,0,VALID,23.1354,VALID,68,VALID,0.755078,
2010-07-29, 02:59:04,VALID,1000.61,VALID,0,VALID,92.7151,VALID,0,VALID,23.1549,VALID,67,VALID,0.826563,
2010-07-29, 03:00:04,VALID,1000.65,VALID,0,VALID,92.6312,VALID,0,VALID,23.1744,VALID,68,VALID,0.726953,
2010-07-29, 03:01:04,VALID,1000.63,VALID,0,VALID,92.532,VALID,0,VALID,23.1744,VALID,67,VALID,0.555078,
2010-07-29, 03:02:04,VALID,1000.67,VALID,0,VALID,92.5244,VALID,0,VALID,23.2134,VALID,43,VALID,0.417969,
2010-07-29, 03:03:04,VALID,1000.65,VALID,0,VALID,92.5854,VALID,0,VALID,23.2134,VALID,43,VALID,0,
2010-07-29, 03:04:04,VALID,1000.68,VALID,0,VALID,92.7075,VALID,0,VALID,23.2347,VALID,318,VALID,0,
2010-07-29, 03:05:04,VALID,1000.66,VALID,0,VALID,92.8143,VALID,0,VALID,23.1939,VALID,318,VALID,0,
2010-07-29, 03:06:04,VALID,1000.67,VALID,0,VALID,92.9211,VALID,0,VALID,23.1957,VALID,318,VALID,0,
2010-07-29, 03:07:04,VALID,1000.66,VALID,0,VALID,93.0203,VALID,0,VALID,23.1549,VALID,318,VALID,0,
2010-07-29, 03:08:04,VALID,1000.71,VALID,0,VALID,93.0966,VALID,0,VALID,23.1354,VALID,318,VALID,0,
2010-07-29, 03:09:04,VALID,1000.71,VALID,0,VALID,93.1653,VALID,0,VALID,23.1354,VALID,318,VALID,0,
2010-07-29, 03:10:04,VALID,1000.69,VALID,0,VALID,93.234,VALID,0,VALID,23.1354,VALID,318,VALID,0,
2010-07-29, 03:11:04,VALID,1000.68,VALID,0,VALID,93.2797,VALID,0,VALID,23.1159,VALID,318,VALID,0,
2010-07-29, 03:12:04,VALID,1000.7,VALID,0,VALID,93.3255,VALID,0,VALID,23.1354,VALID,318,VALID,0,
2010-07-29, 03:13:04,VALID,1000.72,VALID,0,VALID,93.3789,VALID,0,VALID,23.1159,VALID,162,VALID,0.669531,
2010-07-29, 03:14:04,VALID,1000.72,VALID,0,VALID,93.4323,VALID,0,VALID,23.1354,VALID,147,VALID,0.672266,
2010-07-29, 03:15:04,VALID,1000.72,VALID,0,VALID,93.4781,VALID,0,VALID,23.1354,VALID,150,VALID,0.533984,
2010-07-29, 03:16:04,VALID,1000.76,VALID,0,VALID,93.501,VALID,0,VALID,23.1354,VALID,150,VALID,0.547266,
2010-07-29, 03:17:04,VALID,1000.72,VALID,0,VALID,93.5239,VALID,0,VALID,23.1159,VALID,148,VALID,0.232422,
2010-07-29, 03:18:04,VALID,1000.74,VALID,0,VALID,93.5315,VALID,0,VALID,23.1159,VALID,148,VALID,0.596484,
2010-07-29, 03:19:04,VALID,1000.73,VALID,0,VALID,93.5468,VALID,0,VALID,23.1159,VALID,148,VALID,0.476563,
2010-07-29, 03:20:04,VALID,1000.73,VALID,0,VALID,93.6002,VALID,0,VALID,23.1354,VALID,148,VALID,0,
2010-07-29, 03:21:04,VALID,1000.76,VALID,0,VALID,93.5926,VALID,0,VALID,23.1354,VALID,98,VALID,0.933594,
2010-07-29, 03:22:04,VALID,1000.76,VALID,0,VALID,93.6002,VALID,0,VALID,23.1549,VALID,106,VALID,1.19687,
2010-07-29, 03:23:04,VALID,1000.73,VALID,0,VALID,93.6154,VALID,0,VALID,23.1744,VALID,105,VALID,0.51875,
2010-07-29, 03:24:04,VALID,1000.73,VALID,0,VALID,93.6002,VALID,0,VALID,23.1744,VALID,101,VALID,1.16367,
2010-07-29, 03:25:04,VALID,1000.72,VALID,0,VALID,93.5697,VALID,0,VALID,23.1744,VALID,93,VALID,1.11094,
2010-07-29, 03:26:04,VALID,1000.75,VALID,0,VALID,93.5468,VALID,0,VALID,23.2134,VALID,100,VALID,1.20703,
2010-07-29, 03:27:04,VALID,1000.73,VALID,0,VALID,93.5163,VALID,0,VALID,23.2134,VALID,102,VALID,1.11328,
2010-07-29, 03:28:04,VALID,1000.73,VALID,0,VALID,93.4934,VALID,0,VALID,23.2329,VALID,102,VALID,0.603906,
2010-07-29, 03:29:04,VALID,1000.74,VALID,0,VALID,93.4552,VALID,0,VALID,23.2524,VALID,102,VALID,0.909766,
2010-07-29, 03:30:04,VALID,1000.73,VALID,0,VALID,93.4247,VALID,0,VALID,23.2524,VALID,107,VALID,1.12656,
2010-07-29, 03:31:04,VALID,1000.74,VALID,0,VALID,93.4171,VALID,0,VALID,23.2719,VALID,109,VALID,1.06953,
2010-07-29, 03:32:04,VALID,1000.74,VALID,0,VALID,93.3637,VALID,0,VALID,23.2737,VALID,112,VALID,0.984766,
2010-07-29, 03:33:04,VALID,1000.73,VALID,0,VALID,93.3408,VALID,0,VALID,23.2719,VALID,114,VALID,0.729688,
2010-07-29, 03:34:04,VALID,1000.72,VALID,0,VALID,93.3103,VALID,0,VALID,23.2524,VALID,119,VALID,0.912109,
2010-07-29, 03:35:04,VALID,1000.71,VALID,0,VALID,93.3103,VALID,0,VALID,23.2507,VALID,118,VALID,0.761719,
2010-07-29, 03:36:04,VALID,1000.7,VALID,0,VALID,93.2874,VALID,0,VALID,23.2524,VALID,102,VALID,0.9375,
2010-07-29, 03:37:04,VALID,1000.7,VALID,0,VALID,93.1805,VALID,0,VALID,23.2329,VALID,105,VALID,1.06211,
2010-07-29, 03:38:04,VALID,1000.7,VALID,0,VALID,93.0737,VALID,0,VALID,23.2524,VALID,112,VALID,0.641016,
2010-07-29, 03:39:04,VALID,1000.68,VALID,0,VALID,93.0051,VALID,0,VALID,23.2719,VALID,125,VALID,0.046875,
2010-07-29, 03:40:04,VALID,1000.71,VALID,0,VALID,92.9593,VALID,0,VALID,23.2719,VALID,128,VALID,1.00547,
2010-07-29, 03:41:04,VALID,1000.69,VALID,0,VALID,92.9364,VALID,0,VALID,23.2915,VALID,137,VALID,1.10508,
2010-07-29, 03:42:04,VALID,1000.72,VALID,0,VALID,92.9211,VALID,0,VALID,23.2719,VALID,143,VALID,1.08828,
2010-07-29, 03:43:04,VALID,1000.69,VALID,0,VALID,92.8983,VALID,0,VALID,23.2524,VALID,143,VALID,1.11016,
2010-07-29, 03:44:04,VALID,1000.7,VALID,0,VALID,92.8754,VALID,0,VALID,23.2117,VALID,151,VALID,0.752734,
2010-07-29, 03:45:04,VALID,1000.7,VALID,0,VALID,92.883,VALID,0,VALID,23.2524,VALID,151,VALID,0.707422,
2010-07-29, 03:46:04,VALID,1000.71,VALID,0,VALID,92.8448,VALID,0,VALID,23.2312,VALID,151,VALID,0.719922,
2010-07-29, 03:47:04,VALID,1000.67,VALID,0,VALID,92.8296,VALID,0,VALID,23.2117,VALID,151,VALID,0.484375,
2010-07-29, 03:48:04,VALID,1000.7,VALID,0,VALID,92.822,VALID,0,VALID,23.2329,VALID,151,VALID,0,
2010-07-29, 03:49:04,VALID,1000.69,VALID,0,VALID,92.8372,VALID,0,VALID,23.2329,VALID,157,VALID,0,
2010-07-29, 03:50:04,VALID,1000.68,VALID,0,VALID,92.8754,VALID,0,VALID,23.2329,VALID,163,VALID,0,
2010-07-29, 03:51:04,VALID,1000.66,VALID,0,VALID,92.8601,VALID,0,VALID,23.2329,VALID,163,VALID,0,